Location: Ebersheim
(48.3033°N, 7.4991°E)
Time: 06:36:26
(UTC+00:00)

CSL-04 Debris - Pass Details

Date: 27 February 2020
Orbit: 826 x 849 km, 99.0° (Epoch: 09 April)

Event Time Altitude Azimuth Distance (km) Brightness Sun altitude
Rises 17:52:38 0° 160° (SSE) 3,384 7.2 -7.9°
Reaches altitude 10° 17:54:58 10° 159° (SSE) 2,456 6.4 -8.2°
Maximum altitude 18:00:26 81° 72° (ENE) 862 4.2 -9.1°
Drops below altitude 10° 18:05:57 10° 347° (NNW) 2,484 6.8 -10.1°
Sets 18:08:20 0° 346° (NNW) 3,425 7.5 -10.5°
